EW2027 Weather Reports


Display with metric or nautical units.
time (UTC)temp
F
wind
direction
speed
MPH
gust
MPH
rain 1hr
in
rain 24hr
in
rain mn
in
humidity
%
barometer
mb
20260906150704 89 170 1.0 2.0 0.00 0.00 0.00 59 1017.2
20260906150203 89 170 1.0 3.0 0.00 0.00 0.00 57 1017.2
20260906143703 88 155 0.0 1.0 0.00 0.00 0.00 60 1017.2
20260906143203 88 155 0.0 3.0 0.00 0.00 0.00 61 1017.2
20260906140704 87 142 0.0 1.0 0.00 0.00 0.00 62 1017.1
20260906140204 86 142 1.0 3.0 0.00 0.00 0.00 62 1017.1
20260906133703 83 132 0.0 0.0 0.00 0.00 0.00 66 1016.8
20260906133204 82 132 0.0 0.0 0.00 0.00 0.00 68 1016.6
20260906130703 78 132 0.0 0.0 0.00 0.00 0.00 75 1016.5
20260906130204 77 132 0.0 3.0 0.00 0.00 0.00 77 1016.6
20260906123703 75 132 0.0 1.0 0.00 0.00 0.00 80 1016.2
20260906123203 75 132 0.0 0.0 0.00 0.00 0.00 80 1016.1
20260906120704 75 132 0.0 0.0 0.00 0.00 0.00 79 1015.8
20260906120203 75 132 0.0 1.0 0.00 0.00 0.00 79 1015.9
20260906113704 75 132 0.0 0.0 0.00 0.00 0.00 78 1015.7
20260906113204 75 132 0.0 1.0 0.00 0.00 0.00 78 1015.7
20260906110203 76 132 0.0 0.0 0.00 0.00 0.00 77 1015.4
20260906100703 77 132 0.0 1.0 0.00 0.00 0.00 77 1015.3
20260906100204 77 132 0.0 1.0 0.00 0.00 0.00 77 1015.3
20260906093704 77 132 0.0 1.0 0.00 0.00 0.00 76 1015.2
20260906093204 77 132 0.0 2.0 0.00 0.00 0.00 76 1015.2
20260906090704 78 132 0.0 1.0 0.00 0.00 0.00 75 1015.2
20260906083703 78 132 0.0 0.0 0.00 0.00 0.00 73 1014.9
20260906083203 78 132 0.0 0.0 0.00 0.00 0.00 73 1014.8
20260906080703 79 132 0.0 0.0 0.00 0.00 0.00 72 1014.8
20260906080203 79 132 0.0 0.0 0.00 0.00 0.00 72 1014.8
20260906073704 79 132 0.0 1.0 0.00 0.00 0.00 72 1014.7
20260906073204 80 132 0.0 3.0 0.00 0.00 0.00 71 1014.7
20260906070204 80 132 0.0 0.0 0.00 0.00 0.00 71 1014.7
20260906063703 80 132 0.0 0.0 0.00 0.00 0.00 70 1014.9
20260906063204 80 132 0.0 0.0 0.00 0.00 0.00 70 1014.9
20260906060704 81 132 0.0 0.0 0.00 0.00 0.00 69 1015.1
20260906060203 81 132 0.0 0.0 0.00 0.00 0.00 68 1015.0
20260906053703 82 132 0.0 0.0 0.00 0.00 0.00 67 1014.9
20260906053203 82 132 0.0 0.0 0.00 0.00 0.00 67 1015.0
20260906050705 84 132 0.0 0.0 0.00 0.00 0.00 64 1014.8
20260906050203 84 132 0.0 1.0 0.00 0.00 0.00 63 1014.9
20260906043704 86 132 0.0 0.0 0.00 0.00 0.00 60 1014.7
20260906043204 86 132 0.0 2.0 0.00 0.00 0.00 59 1014.6
20260906040703 87 132 1.0 2.0 0.00 0.00 0.00 58 1014.7
20260906040205 87 132 1.0 3.0 0.00 0.00 0.00 58 1014.7
20260906033704 87 132 2.0 3.0 0.00 0.00 0.00 57 1014.7
20260906033204 87 130 1.0 3.0 0.00 0.00 0.00 57 1014.7
20260906030703 88 103 1.0 2.0 0.00 0.00 0.00 57 1014.6
20260906023704 90 104 1.0 2.0 0.00 0.00 0.00 52 1014.3
20260906023204 90 103 1.0 2.0 0.00 0.00 0.00 52 1014.1
20260906020704 91 103 1.0 2.0 0.00 0.00 0.00 50 1013.8
20260906020204 91 103 1.0 3.0 0.00 0.00 0.00 50 1013.7
20260906010704 93 103 0.0 0.0 0.00 0.00 0.00 49 1013.4
20260906010203 94 103 0.0 1.0 0.00 0.00 0.00 48 1013.4
20260906003703 96 103 0.0 2.0 0.00 0.00 0.00 43 1013.2
20260906000704 98 120 2.0 3.0 0.00 0.00 0.00 41 1013.3
20260906000205 98 129 3.0 10.0 0.00 0.00 0.00 40 1013.2
20260905223703 100 155 3.0 6.0 0.00 0.00 0.00 39 1012.8
20260905220705 100 226 2.0 3.0 0.00 0.00 0.00 38 1012.9
20260905220204 100 122 3.0 15.0 0.00 0.00 0.00 39 1012.9
20260905213704 101 149 2.0 3.0 0.00 0.00 0.00 39 1013.2
20260905213204 100 144 5.0 12.0 0.00 0.00 0.00 40 1013.2
20260905210703 100 139 7.0 12.0 0.00 0.00 0.00 39 1013.6
20260905210204 100 136 4.0 10.0 0.00 0.00 0.00 39 1013.7
20260905203203 100 74 4.0 12.0 0.00 0.00 0.00 39 1014.0
20260905200703 99 161 3.0 6.0 0.00 0.00 0.00 41 1014.5
20260905200204 99 145 5.0 10.0 0.00 0.00 0.00 42 1014.5
20260905193704 99 170 3.0 8.0 0.00 0.00 0.00 42 1014.8
20260905193204 99 144 2.0 9.0 0.00 0.00 0.00 42 1014.9
20260905183702 98 143 1.0 5.0 0.00 0.00 0.00 45 1015.6
20260905183202 97 132 3.0 9.0 0.00 0.00 0.00 46 1015.7
20260905180702 97 121 4.0 8.0 0.00 0.00 0.00 44 1016.1
20260905180202 98 141 3.0 12.0 0.00 0.00 0.00 46 1016.1
20260905173702 97 232 2.0 3.0 0.00 0.00 0.00 47 1016.3
20260905173202 97 215 3.0 12.0 0.00 0.00 0.00 48 1016.4
20260905170703 96 130 2.0 5.0 0.00 0.00 0.00 49 1016.5
20260905170203 96 125 1.0 12.0 0.00 0.00 0.00 49 1016.5
20260905163702 95 233 2.0 3.0 0.00 0.00 0.00 50 1016.8
20260905163202 95 251 1.0 7.0 0.00 0.00 0.00 50 1016.9
20260905160702 93 212 2.0 3.0 0.00 0.00 0.00 54 1016.9
20260905160202 93 265 1.0 5.0 0.00 0.00 0.00 54 1016.9
20260905153703 92 161 2.0 7.0 0.00 0.00 0.00 57 1016.8
20260905153203 92 203 1.0 5.0 0.00 0.00 0.00 58 1016.8